Year,Month,Day,Hour,Minute,Value (Times are PST for temperature in C)
2021,04,16,00,00,11.10
2021,04,16,00,01,11.10
2021,04,16,00,02,11.00
2021,04,16,00,03,11.00
2021,04,16,00,04,10.90
2021,04,16,00,05,10.90
2021,04,16,00,06,10.90
2021,04,16,00,07,10.80
2021,04,16,00,08,10.80
2021,04,16,00,09,10.80
2021,04,16,00,10,10.80
2021,04,16,00,11,10.70
2021,04,16,00,12,10.70
2021,04,16,00,13,10.70
2021,04,16,00,14,10.70
2021,04,16,00,15,10.60
2021,04,16,00,16,10.60
2021,04,16,00,17,10.60
2021,04,16,00,18,10.50
2021,04,16,00,19,10.50
2021,04,16,00,20,10.50
2021,04,16,00,21,10.50
2021,04,16,00,22,10.40
2021,04,16,00,23,10.40
2021,04,16,00,24,10.40
2021,04,16,00,25,10.30
2021,04,16,00,26,10.30
2021,04,16,00,27,10.30
2021,04,16,00,28,10.30
2021,04,16,00,29,10.30
2021,04,16,00,30,10.20
2021,04,16,00,31,10.20
2021,04,16,00,32,10.20
2021,04,16,00,33,10.10
2021,04,16,00,34,10.10
2021,04,16,00,35,10.10
2021,04,16,00,36,10.10
2021,04,16,00,37,10.00
2021,04,16,00,38,10.00
2021,04,16,00,39,10.00
2021,04,16,00,40,9.90
2021,04,16,00,41,9.90
2021,04,16,00,42,9.90
2021,04,16,00,43,9.90
2021,04,16,00,44,9.90
2021,04,16,00,45,9.80
2021,04,16,00,46,9.80
2021,04,16,00,47,9.80
2021,04,16,00,48,9.80
2021,04,16,00,49,9.70
2021,04,16,00,50,9.70
2021,04,16,00,51,9.70
2021,04,16,00,52,9.70
2021,04,16,00,53,9.70
2021,04,16,00,54,9.60
2021,04,16,00,55,9.60
2021,04,16,00,56,9.60
2021,04,16,00,57,9.60
2021,04,16,00,58,9.60
2021,04,16,00,59,9.60
2021,04,16,01,00,9.70
2021,04,16,01,01,9.70
2021,04,16,01,02,9.60
2021,04,16,01,03,9.70
2021,04,16,01,04,9.70
2021,04,16,01,05,9.70
2021,04,16,01,06,9.60
2021,04,16,01,07,9.60
2021,04,16,01,08,9.60
2021,04,16,01,09,9.60
2021,04,16,01,10,9.60
2021,04,16,01,11,9.60
2021,04,16,01,12,9.60
2021,04,16,01,13,9.50
2021,04,16,01,14,9.50
2021,04,16,01,15,9.50
2021,04,16,01,16,9.50
2021,04,16,01,17,9.40
2021,04,16,01,18,9.40
2021,04,16,01,19,9.40
2021,04,16,01,20,9.40
2021,04,16,01,21,9.40
2021,04,16,01,22,9.40
2021,04,16,01,23,9.40
2021,04,16,01,24,9.40
2021,04,16,01,25,9.40
2021,04,16,01,26,9.40
2021,04,16,01,27,9.40
2021,04,16,01,28,9.30
2021,04,16,01,29,9.30
2021,04,16,01,30,9.30
2021,04,16,01,31,9.30
2021,04,16,01,32,9.30
2021,04,16,01,33,9.30
2021,04,16,01,34,9.30
2021,04,16,01,35,9.30
2021,04,16,01,36,9.30
2021,04,16,01,37,9.30
2021,04,16,01,38,9.20
2021,04,16,01,39,9.20
2021,04,16,01,40,9.20
2021,04,16,01,41,9.20
2021,04,16,01,42,9.20
2021,04,16,01,43,9.20
2021,04,16,01,44,9.20
2021,04,16,01,45,9.20
2021,04,16,01,46,9.20
2021,04,16,01,47,9.20
2021,04,16,01,48,9.10
2021,04,16,01,49,9.00
2021,04,16,01,50,9.00
2021,04,16,01,51,9.00
2021,04,16,01,52,9.00
2021,04,16,01,53,8.90
2021,04,16,01,54,8.90
2021,04,16,01,55,8.90
2021,04,16,01,56,8.90
2021,04,16,01,57,8.90
2021,04,16,01,58,9.00
2021,04,16,01,59,9.00
2021,04,16,02,00,9.00
2021,04,16,02,01,9.00
2021,04,16,02,02,9.10
2021,04,16,02,03,9.10
2021,04,16,02,04,9.10
2021,04,16,02,05,9.10
2021,04,16,02,06,9.10
2021,04,16,02,07,9.20
2021,04,16,02,08,9.20
2021,04,16,02,09,9.20
2021,04,16,02,10,9.20
2021,04,16,02,11,9.20
2021,04,16,02,12,9.20
2021,04,16,02,13,9.30
2021,04,16,02,14,9.30
2021,04,16,02,15,9.30
2021,04,16,02,16,9.30
2021,04,16,02,17,9.30
2021,04,16,02,18,9.30
2021,04,16,02,19,9.30
2021,04,16,02,20,9.30
2021,04,16,02,21,9.40
2021,04,16,02,22,9.40
2021,04,16,02,23,9.30
2021,04,16,02,24,9.30
2021,04,16,02,25,9.30
2021,04,16,02,26,9.30
2021,04,16,02,27,9.30
2021,04,16,02,28,9.30
2021,04,16,02,29,9.30
2021,04,16,02,30,9.20
2021,04,16,02,31,9.20
2021,04,16,02,32,9.20
2021,04,16,02,33,9.20
2021,04,16,02,34,9.20
2021,04,16,02,35,9.20
2021,04,16,02,36,9.10
2021,04,16,02,37,9.10
2021,04,16,02,38,9.20
2021,04,16,02,39,9.10
2021,04,16,02,40,9.10
2021,04,16,02,41,9.00
2021,04,16,02,42,9.00
2021,04,16,02,43,8.90
2021,04,16,02,44,8.90
2021,04,16,02,45,8.90
2021,04,16,02,46,8.80
2021,04,16,02,47,8.80
2021,04,16,02,48,8.80
2021,04,16,02,49,8.80
2021,04,16,02,50,8.80
2021,04,16,02,51,8.80
2021,04,16,02,52,8.70
2021,04,16,02,53,8.70
2021,04,16,02,54,8.70
2021,04,16,02,55,8.70
2021,04,16,02,56,8.70
2021,04,16,02,57,8.70
2021,04,16,02,58,8.70
2021,04,16,02,59,8.70
2021,04,16,03,00,8.70
2021,04,16,03,01,8.70
2021,04,16,03,02,8.80
2021,04,16,03,03,8.80
2021,04,16,03,04,8.80
2021,04,16,03,05,8.80
2021,04,16,03,06,8.80
2021,04,16,03,07,8.90
2021,04,16,03,08,8.90
2021,04,16,03,09,8.90
2021,04,16,03,10,8.90
2021,04,16,03,11,9.00
2021,04,16,03,12,9.00
2021,04,16,03,13,9.00
2021,04,16,03,14,9.10
2021,04,16,03,15,9.10
2021,04,16,03,16,9.20
2021,04,16,03,17,9.20
2021,04,16,03,18,9.20
2021,04,16,03,19,9.20
2021,04,16,03,20,9.20
2021,04,16,03,21,9.20
2021,04,16,03,22,9.20
2021,04,16,03,23,9.30
2021,04,16,03,24,9.30
2021,04,16,03,25,9.30
2021,04,16,03,26,9.30
2021,04,16,03,27,9.30
2021,04,16,03,28,9.30
2021,04,16,03,29,9.30
2021,04,16,03,30,9.30
2021,04,16,03,31,9.20
2021,04,16,03,32,9.20
2021,04,16,03,33,9.20
2021,04,16,03,34,9.20
2021,04,16,03,35,9.20
2021,04,16,03,36,9.20
2021,04,16,03,37,9.10
2021,04,16,03,38,9.10
2021,04,16,03,39,9.10
2021,04,16,03,40,9.10
2021,04,16,03,41,9.10
2021,04,16,03,42,9.00
2021,04,16,03,43,9.00
2021,04,16,03,44,9.00
2021,04,16,03,45,9.00
2021,04,16,03,46,9.00
2021,04,16,03,47,9.00
2021,04,16,03,48,8.90
2021,04,16,03,49,9.00
2021,04,16,03,50,8.90
2021,04,16,03,51,8.90
2021,04,16,03,52,8.90
2021,04,16,03,53,8.90
2021,04,16,03,54,8.80
2021,04,16,03,55,8.80
2021,04,16,03,56,8.70
2021,04,16,03,57,8.70
2021,04,16,03,58,8.70
2021,04,16,03,59,8.60
2021,04,16,04,00,8.60
2021,04,16,04,01,8.60
2021,04,16,04,02,8.50
2021,04,16,04,03,8.50
2021,04,16,04,04,8.50
2021,04,16,04,05,8.40
2021,04,16,04,06,8.40
2021,04,16,04,07,8.50
2021,04,16,04,08,8.50
2021,04,16,04,09,8.50
2021,04,16,04,10,8.50
2021,04,16,04,11,8.50
2021,04,16,04,12,8.50
2021,04,16,04,13,8.50
2021,04,16,04,14,8.50
2021,04,16,04,15,8.60
2021,04,16,04,16,8.60
2021,04,16,04,17,8.60
2021,04,16,04,18,8.60
2021,04,16,04,19,8.60
2021,04,16,04,20,8.60
2021,04,16,04,21,8.60
2021,04,16,04,22,8.70
2021,04,16,04,23,8.70
2021,04,16,04,24,8.70
2021,04,16,04,25,8.70
2021,04,16,04,26,8.70
2021,04,16,04,27,8.70
2021,04,16,04,28,8.70
2021,04,16,04,29,8.70
2021,04,16,04,30,8.70
2021,04,16,04,31,8.70
2021,04,16,04,32,8.70
2021,04,16,04,33,8.60
2021,04,16,04,34,8.60
2021,04,16,04,35,8.60
2021,04,16,04,36,8.60
2021,04,16,04,37,8.50
2021,04,16,04,38,8.40
2021,04,16,04,39,8.40
2021,04,16,04,40,8.30
2021,04,16,04,41,8.20
2021,04,16,04,42,8.20
2021,04,16,04,43,8.10
2021,04,16,04,44,8.10
2021,04,16,04,45,8.00
2021,04,16,04,46,8.00
2021,04,16,04,47,7.90
2021,04,16,04,48,7.80
2021,04,16,04,49,7.80
2021,04,16,04,50,7.80
2021,04,16,04,51,7.70
2021,04,16,04,52,7.70
2021,04,16,04,53,7.70
2021,04,16,04,54,7.70
2021,04,16,04,55,7.60
2021,04,16,04,56,7.70
2021,04,16,04,57,7.70
2021,04,16,04,58,7.70
2021,04,16,04,59,7.70
2021,04,16,05,00,7.70
2021,04,16,05,01,7.80
2021,04,16,05,02,7.80
2021,04,16,05,03,7.80
2021,04,16,05,04,7.80
2021,04,16,05,05,7.80
2021,04,16,05,06,7.80
2021,04,16,05,07,7.80
2021,04,16,05,08,7.90
2021,04,16,05,09,7.90
2021,04,16,05,10,7.90
2021,04,16,05,11,8.00
2021,04,16,05,12,8.10
2021,04,16,05,13,8.10
2021,04,16,05,14,8.10
2021,04,16,05,15,8.20
2021,04,16,05,16,8.20
2021,04,16,05,17,8.20
2021,04,16,05,18,8.20
2021,04,16,05,19,8.20
2021,04,16,05,20,8.20
2021,04,16,05,21,8.30
2021,04,16,05,22,8.20
2021,04,16,05,23,8.30
2021,04,16,05,24,8.30
2021,04,16,05,25,8.30
2021,04,16,05,26,8.30
2021,04,16,05,27,8.30
2021,04,16,05,28,8.30
2021,04,16,05,29,8.30
2021,04,16,05,30,8.40
2021,04,16,05,31,8.40
2021,04,16,05,32,8.40
2021,04,16,05,33,8.40
2021,04,16,05,34,8.40
2021,04,16,05,35,8.50
2021,04,16,05,36,8.50
2021,04,16,05,37,8.60
2021,04,16,05,38,8.60
2021,04,16,05,39,8.60
2021,04,16,05,40,8.60
2021,04,16,05,41,8.60
2021,04,16,05,42,8.70
2021,04,16,05,43,8.70
2021,04,16,05,44,8.70
2021,04,16,05,45,8.80
2021,04,16,05,46,8.80
2021,04,16,05,47,8.90
2021,04,16,05,48,8.90
2021,04,16,05,49,9.00
2021,04,16,05,50,9.00
2021,04,16,05,51,9.10
2021,04,16,05,52,9.10
2021,04,16,05,53,9.10
2021,04,16,05,54,9.20
2021,04,16,05,55,9.20
2021,04,16,05,56,9.20
2021,04,16,05,57,9.30
2021,04,16,05,58,9.30
2021,04,16,05,59,9.30
2021,04,16,06,00,9.30
2021,04,16,06,01,9.40
2021,04,16,06,02,9.40
2021,04,16,06,03,9.40
2021,04,16,06,04,9.50
2021,04,16,06,05,9.50
2021,04,16,06,06,9.50
2021,04,16,06,07,9.60
2021,04,16,06,08,9.60
2021,04,16,06,09,9.60
2021,04,16,06,10,9.60
2021,04,16,06,11,9.60
2021,04,16,06,12,9.60
2021,04,16,06,13,9.60
2021,04,16,06,14,9.60
2021,04,16,06,15,9.60
2021,04,16,06,16,9.60
2021,04,16,06,17,9.50
2021,04,16,06,18,9.50
2021,04,16,06,19,9.40
2021,04,16,06,20,9.40
2021,04,16,06,21,9.40
2021,04,16,06,22,9.30
2021,04,16,06,23,9.30
2021,04,16,06,24,9.30
2021,04,16,06,25,9.20
2021,04,16,06,26,9.20
2021,04,16,06,27,9.10
2021,04,16,06,28,9.10
2021,04,16,06,29,9.10
2021,04,16,06,30,9.00
2021,04,16,06,31,9.00
2021,04,16,06,32,8.90
2021,04,16,06,33,8.90
2021,04,16,06,34,8.90
2021,04,16,06,35,8.90
2021,04,16,06,36,8.90
2021,04,16,06,37,8.90
2021,04,16,06,38,8.80
2021,04,16,06,39,8.90
2021,04,16,06,40,8.90
2021,04,16,06,41,8.90
2021,04,16,06,42,8.90
2021,04,16,06,43,9.00
2021,04,16,06,44,9.00
2021,04,16,06,45,9.00
2021,04,16,06,46,9.00
2021,04,16,06,47,9.10
2021,04,16,06,48,9.10
2021,04,16,06,49,9.10
2021,04,16,06,50,9.10
2021,04,16,06,51,9.10
2021,04,16,06,52,9.10
2021,04,16,06,53,9.20
2021,04,16,06,54,9.20
2021,04,16,06,55,9.20
2021,04,16,06,56,9.30
2021,04,16,06,57,9.30
2021,04,16,06,58,9.30
2021,04,16,06,59,9.40
2021,04,16,07,00,9.40
2021,04,16,07,01,9.50
2021,04,16,07,02,9.50
2021,04,16,07,03,9.60
2021,04,16,07,04,9.70
2021,04,16,07,05,9.70
2021,04,16,07,06,9.80
2021,04,16,07,07,9.90
2021,04,16,07,08,9.90
2021,04,16,07,09,10.00
2021,04,16,07,10,10.00
2021,04,16,07,11,10.10
2021,04,16,07,12,10.20
2021,04,16,07,13,10.20
2021,04,16,07,14,10.30
2021,04,16,07,15,10.30
2021,04,16,07,16,10.40
2021,04,16,07,17,10.40
2021,04,16,07,18,10.50
2021,04,16,07,19,10.60
2021,04,16,07,20,10.60
2021,04,16,07,21,10.70
2021,04,16,07,22,10.80
2021,04,16,07,23,10.90
2021,04,16,07,24,10.90
2021,04,16,07,25,11.10
2021,04,16,07,26,11.10
2021,04,16,07,27,11.20
2021,04,16,07,28,11.30
2021,04,16,07,29,11.40
2021,04,16,07,30,11.40
2021,04,16,07,31,11.50
2021,04,16,07,32,11.60
2021,04,16,07,33,11.70
2021,04,16,07,34,11.70
2021,04,16,07,35,11.80
2021,04,16,07,36,11.90
2021,04,16,07,37,11.90
2021,04,16,07,38,12.00
2021,04,16,07,39,12.10
2021,04,16,07,40,12.20
2021,04,16,07,41,12.30
2021,04,16,07,42,12.40
2021,04,16,07,43,12.50
2021,04,16,07,44,12.60
2021,04,16,07,45,12.60
2021,04,16,07,46,12.70
2021,04,16,07,47,12.80
2021,04,16,07,48,12.90
2021,04,16,07,49,12.90
2021,04,16,07,50,13.00
2021,04,16,07,51,13.10
2021,04,16,07,52,13.20
2021,04,16,07,53,13.30
2021,04,16,07,54,13.30
2021,04,16,07,55,13.40
2021,04,16,07,56,13.50
2021,04,16,07,57,13.50
2021,04,16,07,58,13.60
2021,04,16,07,59,13.60
2021,04,16,08,00,13.70
2021,04,16,08,01,13.70
2021,04,16,08,02,13.70
2021,04,16,08,03,13.80
2021,04,16,08,04,13.90
2021,04,16,08,05,13.90
2021,04,16,08,06,14.00
2021,04,16,08,07,14.00
2021,04,16,08,08,14.10
2021,04,16,08,09,14.10
2021,04,16,08,10,14.10
2021,04,16,08,11,14.20
2021,04,16,08,12,14.20
2021,04,16,08,13,14.30
2021,04,16,08,14,14.30
2021,04,16,08,15,14.40
2021,04,16,08,16,14.40
2021,04,16,08,17,14.50
2021,04,16,08,18,14.50
2021,04,16,08,19,14.60
2021,04,16,08,20,14.60
2021,04,16,08,21,14.70
2021,04,16,08,22,14.70
2021,04,16,08,23,14.80
2021,04,16,08,24,14.80
2021,04,16,08,25,14.80
2021,04,16,08,26,14.80
2021,04,16,08,27,14.90
2021,04,16,08,28,14.90
2021,04,16,08,29,14.90
2021,04,16,08,30,14.90
2021,04,16,08,31,14.90
2021,04,16,08,32,15.00
2021,04,16,08,33,15.00
2021,04,16,08,34,15.10
2021,04,16,08,35,15.10
2021,04,16,08,36,15.10
2021,04,16,08,37,15.10
2021,04,16,08,38,15.00
2021,04,16,08,39,15.00
2021,04,16,08,40,15.00
2021,04,16,08,41,15.10
2021,04,16,08,42,15.10
2021,04,16,08,43,15.10
2021,04,16,08,44,15.20
2021,04,16,08,45,15.20
2021,04,16,08,46,15.20
2021,04,16,08,47,15.20
2021,04,16,08,48,15.30
2021,04,16,08,49,15.30
2021,04,16,08,50,15.20
2021,04,16,08,51,15.20
2021,04,16,08,52,15.30
2021,04,16,08,53,15.30
2021,04,16,08,54,15.30
2021,04,16,08,55,15.30
2021,04,16,08,56,15.30
2021,04,16,08,57,15.30
2021,04,16,08,58,15.30
2021,04,16,08,59,15.30
2021,04,16,09,00,15.30
2021,04,16,09,01,15.30
2021,04,16,09,02,15.30
2021,04,16,09,03,15.30
2021,04,16,09,04,15.30
2021,04,16,09,05,15.40
2021,04,16,09,06,15.40
2021,04,16,09,07,15.40
2021,04,16,09,08,15.40
2021,04,16,09,09,15.40
2021,04,16,09,10,15.50
2021,04,16,09,11,15.50
2021,04,16,09,12,15.60
2021,04,16,09,13,15.60
2021,04,16,09,14,15.70
2021,04,16,09,15,15.70
2021,04,16,09,16,15.70
2021,04,16,09,17,15.70
2021,04,16,09,18,15.80
2021,04,16,09,19,15.80
2021,04,16,09,20,15.90
2021,04,16,09,21,16.00
2021,04,16,09,22,16.10
2021,04,16,09,23,16.20
2021,04,16,09,24,16.20
2021,04,16,09,25,16.20
2021,04,16,09,26,16.30
2021,04,16,09,27,16.40
2021,04,16,09,28,16.40
2021,04,16,09,29,16.50
2021,04,16,09,30,16.50
2021,04,16,09,31,16.60
2021,04,16,09,32,16.60
2021,04,16,09,33,16.60
2021,04,16,09,34,16.60
2021,04,16,09,35,16.60
2021,04,16,09,36,16.60
2021,04,16,09,37,16.60
2021,04,16,09,38,16.70
2021,04,16,09,39,16.70
2021,04,16,09,40,16.70
2021,04,16,09,41,16.80
2021,04,16,09,42,16.80
2021,04,16,09,43,16.80
2021,04,16,09,44,16.80
2021,04,16,09,45,16.80
2021,04,16,09,46,16.80
2021,04,16,09,47,16.90
2021,04,16,09,48,16.90
2021,04,16,09,49,16.90
2021,04,16,09,50,16.90
2021,04,16,09,51,16.90
2021,04,16,09,52,17.00
2021,04,16,09,53,17.00
2021,04,16,09,54,17.10
2021,04,16,09,55,17.10
2021,04,16,09,56,17.20
2021,04,16,09,57,17.30
2021,04,16,09,58,17.30
2021,04,16,09,59,17.40
2021,04,16,10,00,17.50
2021,04,16,10,01,17.60
2021,04,16,10,02,17.70
2021,04,16,10,03,17.80
2021,04,16,10,04,17.80
2021,04,16,10,05,17.90
2021,04,16,10,06,18.00
2021,04,16,10,07,18.00
2021,04,16,10,08,18.10
2021,04,16,10,09,18.10
2021,04,16,10,10,18.10
2021,04,16,10,11,18.10
2021,04,16,10,12,18.10
2021,04,16,10,13,18.10
2021,04,16,10,14,18.10
2021,04,16,10,15,18.10
2021,04,16,10,16,18.10
2021,04,16,10,17,18.00
2021,04,16,10,18,18.00
2021,04,16,10,19,18.00
2021,04,16,10,20,18.00
2021,04,16,10,21,18.00
2021,04,16,10,22,18.00
2021,04,16,10,23,18.00
2021,04,16,10,24,18.10
2021,04,16,10,25,18.10
2021,04,16,10,26,18.10
2021,04,16,10,27,18.20
2021,04,16,10,28,18.20
2021,04,16,10,29,18.30
2021,04,16,10,30,18.30
2021,04,16,10,31,18.30
2021,04,16,10,32,18.40
2021,04,16,10,33,18.40
2021,04,16,10,34,18.40
2021,04,16,10,35,18.50
2021,04,16,10,36,18.50
2021,04,16,10,37,18.50
2021,04,16,10,38,18.60
2021,04,16,10,39,18.60
2021,04,16,10,40,18.60
2021,04,16,10,41,18.50
2021,04,16,10,42,18.60
2021,04,16,10,43,18.60
2021,04,16,10,44,18.50
2021,04,16,10,45,18.60
2021,04,16,10,46,18.60
2021,04,16,10,47,18.60
2021,04,16,10,48,18.70
2021,04,16,10,49,18.70
2021,04,16,10,50,18.70
2021,04,16,10,51,18.80
2021,04,16,10,52,18.80
2021,04,16,10,53,18.90
2021,04,16,10,54,18.90
2021,04,16,10,55,18.90
2021,04,16,10,56,19.00
2021,04,16,10,57,19.00
2021,04,16,10,58,19.00
2021,04,16,10,59,19.10
2021,04,16,11,00,19.10
2021,04,16,11,01,19.00
2021,04,16,11,02,19.10
2021,04,16,11,03,19.00
2021,04,16,11,04,19.10
2021,04,16,11,05,19.10
2021,04,16,11,06,19.10
2021,04,16,11,07,19.10
2021,04,16,11,08,19.10
2021,04,16,11,09,19.10
2021,04,16,11,10,19.10
2021,04,16,11,11,19.20
2021,04,16,11,12,19.20
2021,04,16,11,13,19.20
2021,04,16,11,14,19.20
2021,04,16,11,15,19.30
2021,04,16,11,16,19.30
2021,04,16,11,17,19.40
2021,04,16,11,18,19.50
2021,04,16,11,19,19.50
2021,04,16,11,20,19.60
2021,04,16,11,21,19.60
2021,04,16,11,22,19.60
2021,04,16,11,23,19.60
2021,04,16,11,24,19.60
2021,04,16,11,25,19.60
2021,04,16,11,26,19.60
2021,04,16,11,27,19.70
2021,04,16,11,28,19.70
2021,04,16,11,29,19.70
2021,04,16,11,30,19.70
2021,04,16,11,31,19.70
2021,04,16,11,32,19.70
2021,04,16,11,33,19.70
2021,04,16,11,34,19.70
2021,04,16,11,35,19.70
2021,04,16,11,36,19.70
2021,04,16,11,37,19.70
2021,04,16,11,38,19.70
2021,04,16,11,39,19.80
2021,04,16,11,40,19.80
2021,04,16,11,41,19.80
2021,04,16,11,42,19.90
2021,04,16,11,43,20.00
2021,04,16,11,44,20.10
2021,04,16,11,45,20.20
2021,04,16,11,46,20.20
2021,04,16,11,47,20.30
2021,04,16,11,48,20.30
2021,04,16,11,49,20.20
2021,04,16,11,50,20.20
2021,04,16,11,51,20.20
2021,04,16,11,52,20.10
2021,04,16,11,53,20.10
2021,04,16,11,54,20.10
2021,04,16,11,55,20.10
2021,04,16,11,56,20.10
2021,04,16,11,57,20.00
2021,04,16,11,58,20.00
2021,04,16,11,59,20.10
2021,04,16,12,00,20.10
2021,04,16,12,01,20.10
2021,04,16,12,02,20.20
2021,04,16,12,03,20.20
2021,04,16,12,04,20.10
2021,04,16,12,05,20.10
2021,04,16,12,06,20.00
2021,04,16,12,07,20.00
2021,04,16,12,08,19.90
2021,04,16,12,09,19.80
2021,04,16,12,10,19.80
2021,04,16,12,11,19.80
2021,04,16,12,12,19.80
2021,04,16,12,13,19.80
2021,04,16,12,14,19.80
2021,04,16,12,15,19.80
2021,04,16,12,16,19.80
2021,04,16,12,17,19.80
2021,04,16,12,18,19.80
2021,04,16,12,19,19.80
2021,04,16,12,20,19.80
2021,04,16,12,21,19.80
2021,04,16,12,22,19.80
2021,04,16,12,23,19.80
2021,04,16,12,24,19.90
2021,04,16,12,25,20.00
2021,04,16,12,26,20.10
2021,04,16,12,27,20.10
2021,04,16,12,28,20.20
2021,04,16,12,29,20.30
2021,04,16,12,30,20.40
2021,04,16,12,31,20.40
2021,04,16,12,32,20.50
2021,04,16,12,33,20.60
2021,04,16,12,34,20.70
2021,04,16,12,35,20.70
2021,04,16,12,36,20.70
2021,04,16,12,37,20.70
2021,04,16,12,38,20.70
2021,04,16,12,39,20.80
2021,04,16,12,40,20.80
2021,04,16,12,41,20.80
2021,04,16,12,42,20.80
2021,04,16,12,43,20.80
2021,04,16,12,44,20.80
2021,04,16,12,45,20.90
2021,04,16,12,46,20.90
2021,04,16,12,47,20.90
2021,04,16,12,48,20.90
2021,04,16,12,49,20.90
2021,04,16,12,50,20.90
2021,04,16,12,51,20.90
2021,04,16,12,52,20.80
2021,04,16,12,53,20.80
2021,04,16,12,54,20.80
2021,04,16,12,55,20.80
2021,04,16,12,56,20.80
2021,04,16,12,57,20.70
2021,04,16,12,58,20.60
2021,04,16,12,59,20.50
2021,04,16,13,00,20.40
2021,04,16,13,01,20.30
2021,04,16,13,02,20.20
2021,04,16,13,03,20.20
2021,04,16,13,04,20.20
2021,04,16,13,05,20.20
2021,04,16,13,06,20.20
2021,04,16,13,07,20.20
2021,04,16,13,08,20.10
2021,04,16,13,09,20.10
2021,04,16,13,10,20.20
2021,04,16,13,11,20.20
2021,04,16,13,12,20.20
2021,04,16,13,13,20.20
2021,04,16,13,14,20.20
2021,04,16,13,15,20.20
2021,04,16,13,16,20.10
2021,04,16,13,17,20.10
2021,04,16,13,18,20.10
2021,04,16,13,19,20.10
2021,04,16,13,20,20.10
2021,04,16,13,21,20.10
2021,04,16,13,22,20.10
2021,04,16,13,23,20.20
2021,04,16,13,24,20.30
2021,04,16,13,25,20.50
2021,04,16,13,26,20.60
2021,04,16,13,27,20.70
2021,04,16,13,28,20.90
2021,04,16,13,29,21.00
2021,04,16,13,30,21.10
2021,04,16,13,31,21.10
2021,04,16,13,32,21.10
2021,04,16,13,33,21.10
2021,04,16,13,34,21.20
2021,04,16,13,35,21.20
2021,04,16,13,36,21.20
2021,04,16,13,37,21.10
2021,04,16,13,38,21.10
2021,04,16,13,39,21.10
2021,04,16,13,40,21.20
2021,04,16,13,41,21.20
2021,04,16,13,42,21.20
2021,04,16,13,43,21.20
2021,04,16,13,44,21.20
2021,04,16,13,45,21.20
2021,04,16,13,46,21.30
2021,04,16,13,47,21.40
2021,04,16,13,48,21.50
2021,04,16,13,49,21.50
2021,04,16,13,50,21.60
2021,04,16,13,51,21.60
2021,04,16,13,52,21.60
2021,04,16,13,53,21.70
2021,04,16,13,54,21.70
2021,04,16,13,55,21.80
2021,04,16,13,56,21.90
2021,04,16,13,57,21.90
2021,04,16,13,58,22.00
2021,04,16,13,59,22.00
2021,04,16,14,00,22.10
2021,04,16,14,01,22.00
2021,04,16,14,02,22.00
2021,04,16,14,03,21.90
2021,04,16,14,04,21.80
2021,04,16,14,05,21.70
2021,04,16,14,06,21.70
2021,04,16,14,07,21.80
2021,04,16,14,08,21.80
2021,04,16,14,09,21.90
2021,04,16,14,10,22.00
2021,04,16,14,11,22.10
2021,04,16,14,12,22.20
2021,04,16,14,13,22.30
2021,04,16,14,14,22.30
2021,04,16,14,15,22.30
2021,04,16,14,16,22.40
2021,04,16,14,17,22.50
2021,04,16,14,18,22.60
2021,04,16,14,19,22.60
2021,04,16,14,20,22.70
2021,04,16,14,21,22.70
2021,04,16,14,22,22.80
2021,04,16,14,23,22.80
2021,04,16,14,24,22.80
2021,04,16,14,25,22.80
2021,04,16,14,26,22.70
2021,04,16,14,27,22.70
2021,04,16,14,28,22.70
2021,04,16,14,29,22.80
2021,04,16,14,30,22.80
2021,04,16,14,31,22.80
2021,04,16,14,32,22.80
2021,04,16,14,33,22.80
2021,04,16,14,34,22.80
2021,04,16,14,35,22.70
2021,04,16,14,36,22.60
2021,04,16,14,37,22.60
2021,04,16,14,38,22.50
2021,04,16,14,39,22.50
2021,04,16,14,40,22.50
2021,04,16,14,41,22.50
2021,04,16,14,42,22.60
2021,04,16,14,43,22.60
2021,04,16,14,44,22.60
2021,04,16,14,45,22.60
2021,04,16,14,46,22.50
2021,04,16,14,47,22.50
2021,04,16,14,48,22.50
2021,04,16,14,49,22.60
2021,04,16,14,50,22.60
2021,04,16,14,51,22.60
2021,04,16,14,52,22.60
2021,04,16,14,53,22.60
2021,04,16,14,54,22.60
2021,04,16,14,55,22.50
2021,04,16,14,56,22.40
2021,04,16,14,57,22.30
2021,04,16,14,58,22.20
2021,04,16,14,59,22.20
2021,04,16,15,00,22.20
2021,04,16,15,01,22.30
2021,04,16,15,02,22.30
2021,04,16,15,03,22.40
2021,04,16,15,04,22.50
2021,04,16,15,05,22.60
2021,04,16,15,06,22.60
2021,04,16,15,07,22.60
2021,04,16,15,08,22.60
2021,04,16,15,09,22.50
2021,04,16,15,10,22.30
2021,04,16,15,11,22.20
2021,04,16,15,12,22.20
2021,04,16,15,13,22.20
2021,04,16,15,14,22.20
2021,04,16,15,15,22.20
2021,04,16,15,16,22.20
2021,04,16,15,17,22.20
2021,04,16,15,18,22.10
2021,04,16,15,19,22.20
2021,04,16,15,20,22.20
2021,04,16,15,21,22.20
2021,04,16,15,22,22.30
2021,04,16,15,23,22.40
2021,04,16,15,24,22.50
2021,04,16,15,25,22.60
2021,04,16,15,26,22.80
2021,04,16,15,27,22.90
2021,04,16,15,28,23.00
2021,04,16,15,29,23.10
2021,04,16,15,30,23.20
2021,04,16,15,31,23.20
2021,04,16,15,32,23.30
2021,04,16,15,33,23.40
2021,04,16,15,34,23.50
2021,04,16,15,35,23.60
2021,04,16,15,36,23.70
2021,04,16,15,37,23.70
2021,04,16,15,38,23.70
2021,04,16,15,39,23.80
2021,04,16,15,40,23.70
2021,04,16,15,41,23.80
2021,04,16,15,42,23.80
2021,04,16,15,43,23.80
2021,04,16,15,44,23.80
2021,04,16,15,45,23.80
2021,04,16,15,46,23.80
2021,04,16,15,47,23.70
2021,04,16,15,48,23.70
2021,04,16,15,49,23.60
2021,04,16,15,50,23.60
2021,04,16,15,51,23.60
2021,04,16,15,52,23.50
2021,04,16,15,53,23.40
2021,04,16,15,54,23.40
2021,04,16,15,55,23.40
2021,04,16,15,56,23.40
2021,04,16,15,57,23.40
2021,04,16,15,58,23.40
2021,04,16,15,59,23.40
2021,04,16,16,00,23.40
2021,04,16,16,01,23.40
2021,04,16,16,02,23.50
2021,04,16,16,03,23.50
2021,04,16,16,04,23.50
2021,04,16,16,05,23.50
2021,04,16,16,06,23.60
2021,04,16,16,07,23.70
2021,04,16,16,08,23.80
2021,04,16,16,09,23.80
2021,04,16,16,10,23.90
2021,04,16,16,11,24.00
2021,04,16,16,12,24.00
2021,04,16,16,13,24.10
2021,04,16,16,14,24.10
2021,04,16,16,15,24.10
2021,04,16,16,16,24.10
2021,04,16,16,17,24.10
2021,04,16,16,18,24.10
2021,04,16,16,19,24.00
2021,04,16,16,20,23.80
2021,04,16,16,21,23.70
2021,04,16,16,22,23.70
2021,04,16,16,23,23.50
2021,04,16,16,24,23.50
2021,04,16,16,25,23.40
2021,04,16,16,26,23.30
2021,04,16,16,27,23.20
2021,04,16,16,28,23.20
2021,04,16,16,29,23.20
2021,04,16,16,30,23.20
2021,04,16,16,31,23.20
2021,04,16,16,32,23.20
2021,04,16,16,33,23.30
2021,04,16,16,34,23.50
2021,04,16,16,35,23.60
2021,04,16,16,36,23.70
2021,04,16,16,37,23.70
2021,04,16,16,38,23.60
2021,04,16,16,39,23.60
2021,04,16,16,40,23.50
2021,04,16,16,41,23.30
2021,04,16,16,42,23.30
2021,04,16,16,43,23.30
2021,04,16,16,44,23.20
2021,04,16,16,45,23.10
2021,04,16,16,46,23.00
2021,04,16,16,47,22.90
2021,04,16,16,48,22.80
2021,04,16,16,49,22.70
2021,04,16,16,50,22.50
2021,04,16,16,51,22.40
2021,04,16,16,52,22.30
2021,04,16,16,53,22.30
2021,04,16,16,54,22.20
2021,04,16,16,55,22.10
2021,04,16,16,56,22.10
2021,04,16,16,57,22.00
2021,04,16,16,58,21.90
2021,04,16,16,59,21.80
2021,04,16,17,00,21.60
2021,04,16,17,01,21.40
2021,04,16,17,02,21.30
2021,04,16,17,03,21.10
2021,04,16,17,04,20.90
2021,04,16,17,05,20.80
2021,04,16,17,06,20.60
2021,04,16,17,07,20.40
2021,04,16,17,08,20.30
2021,04,16,17,09,20.20
2021,04,16,17,10,20.10
2021,04,16,17,11,20.10
2021,04,16,17,12,20.00
2021,04,16,17,13,20.00
2021,04,16,17,14,19.90
2021,04,16,17,15,19.80
2021,04,16,17,16,19.80
2021,04,16,17,17,19.80
2021,04,16,17,18,19.70
2021,04,16,17,19,19.60
2021,04,16,17,20,19.50
2021,04,16,17,21,19.30
2021,04,16,17,22,19.20
2021,04,16,17,23,19.20
2021,04,16,17,24,19.10
2021,04,16,17,25,19.10
2021,04,16,17,26,19.10
2021,04,16,17,27,19.10
2021,04,16,17,28,19.10
2021,04,16,17,29,19.10
2021,04,16,17,30,19.10
2021,04,16,17,31,19.10
2021,04,16,17,32,19.20
2021,04,16,17,33,19.20
2021,04,16,17,34,19.30
2021,04,16,17,35,19.40
2021,04,16,17,36,19.40